Regional Weather Roundup
Issued by NWS Upton, NY

Current Version | Previous Version | Graphics & Text | Print | Product List | Glossary Off
Versions: 1 2 3 4 5 6 7 8 9 10 11 12 13 14 15 16 17 18 19 20 21 22 23 24 25 26 27 28 29 30 31 32 33 34 35 36 37 38 39 40 41 42 43 44 45 46 47 48 49 50

320
ASUS41 KOKX 290405
RWROKX

REGIONAL WEATHER ROUNDUP
NATIONAL WEATHER SERVICE NEW YORK NY
1200 AM EDT SUN MAY 29 2016

NOTE: "FAIR" INDICATES FEW OR NO CLOUDS BELOW 12,000 FEET WITH NO
SIGNIFICANT WEATHER AND/OR OBSTRUCTIONS TO VISIBILITY.

NYZ071-072-176-178-NJZ106-104-290500-
NEW YORK CITY METRO AREA


CITY           SKY/WX    TMP DP  RH WIND       PRES   REMARKS
CENTRAL PARK   CLEAR     78  62  57 VRB5      30.15R
LAGUARDIA APRT PTCLDY    80  66  62 SW10      30.11S
KENNEDY INTL   PTCLDY    68  53  58 S8        30.14S
NEWARK/LIBERTY CLEAR     78  62  57 S13       30.12R
BRNX BOT. GARD   N/A     79  63  57 SW3       30.14R
TETERBORO      PTCLDY    79  62  56 S7        30.10S
$$

NYZ177-179-078>081-290500-
LONG ISLAND NEW YORK

CITY           SKY/WX    TMP DP  RH WIND       PRES   REMARKS
FARMINGDALE    CLEAR     69  50  50 SW7       30.15R
ISLIP          PTCLDY    69  51  52 SW10      30.14S
SHIRLEY        PTCLDY    71  51  49 SW12      30.16S
RIVERHEAD        N/A     70  48  46 CALM      30.13S
WESTHAMPTON    CLOUDY    67  53  61 SW10G20   30.17S
EAST HAMPTON   FAIR      67  48  49 SW12G17   30.14S
MONTAUK POINT    N/A     67  49  52 SW10G21   30.15F
$$

NYZ052-065-067-290500-
HUDSON VALLEY

CITY           SKY/WX    TMP DP  RH WIND       PRES   REMARKS
WHITE PLAINS   PTCLDY    70  64  81 CALM      30.13S
NEWBURGH       CLEAR     73  70  88 CALM      30.13S
MONTGOMERY     CLOUDY    71  68  90 CALM      30.12R
POUGHKEEPSIE   CLEAR     73  67  81 CALM      30.10S
ALBANY         PTCLDY    79  66  64 S6        30.09R
$$

NJZ001-105-106-008-010-013-015-019>022-104-290500-
NEW JERSEY

CITY           SKY/WX    TMP DP  RH WIND       PRES   REMARKS
NEWARK/LIBERTY CLEAR     78  62  57 S13       30.12R
TETERBORO      PTCLDY    79  62  56 S7        30.10S
CALDWELL       CLEAR     75  68  78 CALM      30.12S
MORRISTOWN     CLEAR     73  64  73 S3        30.12S
SOMERVILLE     CLEAR     72  66  81 S3        30.11S
SUSSEX         CLEAR     71  68  90 CALM      30.13R
ANDOVER          N/A     70  68  93 S3        30.14R
TRENTON        CLEAR     74  59  59 S8        30.14R
MILLVILLE      CLEAR     69  55  60 CALM      30.17R
ATLANTIC CITY  CLEAR     69  60  73 SW8       30.17S
WRIGHTSTOWN    NOT AVBL
TOMS RIVER     CLEAR    N/A N/A N/A SW6       30.16S
BELMAR         NOT AVBL
$$

PAZ047>061-062-071-290500-
EASTERN PENNSYLVANIA

CITY           SKY/WX    TMP DP  RH WIND       PRES   REMARKS
PHILADELPHIA   PTCLDY    73  59  61 S3        30.15S
ALLENTOWN      CLEAR     73  63  70 SW6       30.13S
SCRANTON       CLEAR     74  67  78 CALM      30.14R
$$

CTZ002-004>006-009-010-012-RIZ004-006-007-MAZ004-011-015-290500-
SOUTHERN NEW ENGLAND
 IN CT

CITY           SKY/WX    TMP DP  RH WIND       PRES   REMARKS
BRADLEY INTL   PTCLDY    74  64  71 S8        30.10R
HARTFORD       CLEAR     75  62  64 S7        30.11R
DANBURY        CLOUDY    71  66  84 CALM      30.14S
WTRBRY/OXFORD    N/A     70  61  73 SW5       30.15S
BRIDGEPORT     CLOUDY    72  58  61 SW6       30.12S
MERIDEN        CLEAR     72  59  63 S3        30.12S
NEW HAVEN      CLOUDY    68  59  73 S3        30.13S
CHESTER        FAIR      70  57  64 VRB5G12   30.14S
GROTON         PTCLDY    64  60  87 SW6       30.13S
WILLIMANTIC    MOCLDY    73  63  70 S6        30.13R

 IN RI

CITY           SKY/WX    TMP DP  RH WIND       PRES   REMARKS
PROVIDENCE     PTCLDY    74  61  63 SW9       30.11S
BLOCK ISLAND   CLEAR     63  51  65 SW17      30.15S
WESTERLY       CLEAR     67  57  70 CALM      30.14S

 IN MA

CITY           SKY/WX    TMP DP  RH WIND       PRES   REMARKS
BOSTON         MOCLDY    77  66  68 SW9       30.09R
WORCESTER      CLEAR     70  65  84 W9        30.15R
WESTFIELD      CLEAR     73  66  78 S5        30.10R
PROVINCETOWN   CLEAR     63  58  83 S13       30.11R
NANTUCKET      CLEAR     59  55  87 SW8       30.16R
$$

ANZ330-335-338-340-345-350-353-355-290500-
COASTAL MARINE OBSERVATIONS


STATION/POSITION TIME  SKY/WX   TEMP    WIND        PRES    VSBY  WAVE
                                AIR SEA DIR/SP/G                  HT/PER
                 (UTC)          (F)     (DEG/KT/KT) (MB)    (MI)  (FT/S)
NY HARB ENTRANCE 0250            63 58  200/ 16/ 17 1019.8          3/ 5
20S FIRE ISLAND  0250            63 59  210/ 16/ 19 1020.6          3/ 5
GREAT SOUTH BAY  0315            67 70  250/ 14/ 17   N/A
23 SSW MONTAUK P 0250            61 57  240/ 12/ 14 1020.6          3/ 5
15 E BARNEGAT LI 0322               59                N/A           3/ 8
HUDSON CANYON    0250            62 58              1022.2          3/ 8
KINGS POINT      0300            75 63              1019.6
EXECUTION ROCKS  NOT AVBL
CENTRAL LI SOUND 0300            66     220/  6/  8   N/A           1/ 3
EASTERN LI SOUND 0300            60 54  230/  4/  6   N/A
ROBBINS REEF     0300            80                 1019.4
$$


>>>>>>>>>>>>>>>>>>>>>>>>>>>> KEY <<<<<<<<<<<<<<<<<<<<<<<<<<<
>                                                          <
>     SKY/WX - SKY CONDITION/PRESENT WEATHER               <
>     TMP    - TEMPERATURE IN FAHRENHEIT                   <
>     DP     - DEWPOINT IN FAHRENHEIT                      <
>     RH     - RELATIVE HUMIDITY IN PERCENT                <
>     WIND   - DIRECTION AND SPEED IN MPH                  <
>     PRES   - MEAN SEA LEVEL PRESSURE IN INCHES OF HG     <
>     WCI    - WIND CHILL INDEX                            <
>     VSB    - VISIBILITY IN MILES                         <
>     HX     - HEAT INDEX                                  <
>     TC     - TEMPERATURE IN CELSIUS                      <
>     VRB    - VARIABLE WIND DIRECTION                     <
>                                                          <
>>>>>>>>>>>>>>>>>>>>>>>>>>>> KEY <<<<<<<<<<<<<<<<<<<<<<<<<<<






USA.gov is the U.S. government's official web portal to all federal, state and local government web resources and services.